Total_Precipitation_Accumulation
2.30 2.59 3.29 3.04 2.46 2.36 2.27 2.07 1.96 1.83 1.88 1.86 1.87 1.77 1.68 1.77 1.94 2.23 2.47 2.61 2.62 2.54 2.42 2.50 2.53 2.58 2.48 2.34 2.14 1.94 1.88 1.70 1.67 1.66 1.60 1.54 1.55 1.71 1.99 2.07 2.13 1.49 1.47
1.69 2.05 2.81 2.72 2.30 2.13 2.05 1.92 1.86 1.89 1.91 1.83 1.93 1.87 1.89 1.97 2.08 2.25 2.50 2.55 2.42 2.26 2.19 2.22 2.22 2.23 2.13 2.02 1.95 1.84 1.89 1.88 1.82 1.97 1.95 1.73 1.67 1.81 1.99 2.02 2.14 1.47 1.40
1.35 1.65 2.08 2.28 2.01 1.82 1.81 1.76 1.78 1.86 1.87 1.82 1.88 1.92 1.96 2.11 2.27 2.43 2.42 2.22 2.09 2.04 1.99 2.05 2.04 1.91 1.82 1.70 1.71 1.69 1.86 2.07 2.19 2.40 2.65 1.81 1.43 1.81 1.81 1.75 1.60 1.41 1.37
1.24 1.42 1.73 2.06 1.87 1.66 1.72 1.73 1.85 1.86 1.78 1.73 1.80 1.91 2.07 2.32 2.46 2.39 2.17 2.02 1.96 1.88 1.86 1.87 1.91 1.78 1.62 1.51 1.57 1.66 1.89 2.02 2.21 2.57 2.52 1.70 1.22 1.41 1.53 1.50 1.37 1.37 1.28
1.29 1.46 1.85 2.05 1.90 1.81 1.79 1.86 1.87 1.79 1.73 1.76 1.91 2.11 2.37 2.43 2.37 2.19 2.02 1.87 1.75 1.66 1.67 1.66 1.75 1.69 1.52 1.43 1.57 1.69 1.89 2.05 2.38 2.26 1.65 1.74 1.63 1.52 1.39 1.40 1.38 1.32 1.16
1.38 1.53 1.79 2.00 1.88 1.80 1.71 1.73 1.82 1.86 1.84 1.88 1.92 2.04 2.17 2.20 2.11 1.92 1.76 1.63 1.56 1.49 1.43 1.48 1.68 1.70 1.52 1.47 1.56 1.63 1.91 2.16 2.18 1.52 1.27 1.38 1.51 1.61 1.44 1.55 1.55 1.38 1.19
1.29 1.46 1.59 1.94 1.99 1.89 1.78 1.80 1.83 1.86 1.87 1.84 1.81 1.85 1.89 1.93 1.89 1.68 1.50 1.47 1.45 1.31 1.25 1.45 1.63 1.58 1.43 1.42 1.46 1.55 1.87 2.18 1.68 1.23 1.20 1.31 1.41 1.49 1.59 1.76 1.85 1.63 1.37
1.24 1.38 1.52 1.89 2.06 2.05 1.91 1.88 1.80 1.83 1.86 1.79 1.74 1.78 1.76 1.66 1.60 1.49 1.37 1.29 1.28 1.23 1.27 1.45 1.46 1.36 1.36 1.40 1.46 1.56 1.77 1.78 1.18 1.07 1.01 1.06 1.06 1.26 1.60 1.80 1.91 1.82 1.66
1.34 1.40 1.64 1.91 1.93 1.91 2.03 1.93 1.87 1.86 1.90 1.87 1.77 1.76 1.67 1.48 1.40 1.35 1.39 1.34 1.21 1.21 1.34 1.49 1.39 1.30 1.33 1.41 1.45 1.56 1.69 1.72 1.38 1.19 0.96 0.99 1.03 1.34 1.86 2.00 1.93 1.86 1.81
1.68 1.57 1.68 1.82 1.72 1.61 1.65 1.75 1.73 1.68 1.66 1.71 1.71 1.67 1.64 1.55 1.44 1.43 1.41 1.40 1.32 1.35 1.60 1.66 1.54 1.45 1.35 1.34 1.43 1.58 1.68 1.59 1.49 1.26 1.08 0.97 1.12 1.49 1.91 2.08 2.07 2.04 1.91
1.92 1.82 1.67 1.57 1.50 1.44 1.31 1.33 1.54 1.63 1.61 1.63 1.64 1.60 1.62 1.70 1.49 1.55 1.48 1.65 1.70 1.71 1.90 1.96 1.91 1.75 1.58 1.41 1.55 1.68 1.52 1.49 1.51 1.37 1.17 1.02 1.25 1.61 1.92 2.03 2.03 2.02 1.94
2.13 1.90 1.78 1.67 1.45 1.25 1.12 1.30 1.63 1.47 1.51 1.63 1.75 1.72 1.88 2.09 2.08 1.53 1.69 2.03 2.22 2.31 2.34 2.38 2.40 2.08 1.72 1.56 2.01 2.18 1.51 1.43 1.54 1.48 1.32 1.27 1.55 1.85 2.13 2.05 1.97 2.02 1.93
2.45 2.20 2.05 1.87 1.58 1.34 1.43 1.30 1.44 1.64 1.77 1.78 1.77 1.82 2.00 1.85 1.67 1.59 1.82 2.17 2.44 2.44 2.37 2.58 2.61 2.22 2.24 2.48 2.45 2.22 1.69 1.81 1.85 1.79 1.71 1.79 1.95 2.25 2.62 2.42 2.10 2.06 2.05
2.61 2.48 2.47 2.10 1.93 1.94 1.73 1.43 1.32 1.33 1.49 1.70 1.99 1.94 2.02 2.27 2.20 2.13 2.26 2.29 2.41 2.63 3.05 2.88 3.01 2.86 2.85 2.74 2.62 2.44 2.20 2.27 2.20 2.31 2.23 2.01 2.10 2.45 2.98 3.00 2.57 2.27 2.12
2.59 2.61 2.62 2.43 2.27 2.32 2.09 1.85 1.60 1.72 1.72 1.81 2.01 2.13 2.05 2.35 2.61 2.64 2.63 2.57 2.42 2.50 2.77 2.94 2.90 3.24 3.42 3.03 2.63 2.45 2.47 2.56 2.44 2.42 2.29 2.15 2.12 2.35 2.83 3.11 3.03 2.84 2.57
2.85 2.90 2.69 2.63 2.63 2.62 2.53 2.46 2.38 2.11 2.22 2.14 2.14 2.13 2.16 2.44 2.81 2.98 2.91 2.81 2.61 2.56 2.71 2.90 3.06 3.54 3.50 3.34 2.93 2.67 2.57 2.53 2.36 2.28 2.39 2.54 2.37 2.30 2.48 2.89 3.25 3.23 3.10
3.19 3.24 3.22 3.16 3.29 3.24 3.09 2.97 2.73 2.53 2.42 2.43 2.53 2.56 2.45 2.53 2.84 2.85 2.71 2.62 2.63 2.72 2.91 2.94 3.15 3.38 3.09 3.11 2.95 2.73 2.52 2.32 2.17 2.15 2.32 2.50 2.36 2.31 2.50 2.78 3.08 3.22 3.39
3.37 3.57 3.74 3.69 3.70 3.54 3.55 3.53 3.25 3.00 2.83 2.68 2.63 2.67 2.52 2.52 2.65 2.89 2.67 2.52 2.83 2.84 2.97 3.27 3.43 3.38 3.33 3.36 3.11 2.73 2.48 2.38 2.04 1.93 1.90 2.08 2.31 2.10 2.43 2.72 2.82 3.00 3.42
3.76 4.05 4.26 4.25 4.09 3.83 3.89 3.87 3.70 3.56 3.25 2.89 2.71 2.63 2.51 2.51 2.65 2.97 2.96 3.03 3.06 3.17 3.22 3.05 3.48 3.53 3.43 3.46 3.04 2.83 2.50 2.21 2.01 1.82 1.74 1.73 1.95 2.17 2.32 2.38 2.51 2.71 3.25
4.25 4.66 4.52 4.42 4.60 4.50 4.36 4.24 3.96 3.50 3.07 2.93 2.89 2.70 2.57 2.63 2.76 3.19 3.04 3.02 3.09 3.27 3.36 3.32 3.48 3.52 3.24 3.21 2.91 2.84 2.44 1.96 1.86 1.81 1.64 1.64 1.75 1.78 2.11 2.44 2.69 2.44 2.79
4.30 4.70 4.86 4.87 4.78 4.62 4.27 3.97 3.73 3.49 3.28 3.02 2.83 2.75 2.66 2.56 2.78 3.25 3.06 3.30 3.24 3.24 3.27 3.32 3.45 3.36 3.07 3.26 3.35 2.95 2.38 1.95 1.92 1.70 1.64 1.68 1.73 1.71 2.06 2.48 2.76 2.70 2.43
3.91 4.37 4.69 4.86 4.74 4.36 4.01 3.84 3.74 3.71 3.32 3.02 2.99 3.12 2.94 2.94 2.99 3.04 3.23 3.18 3.23 3.36 3.31 3.30 3.44 3.23 2.88 3.16 3.51 3.58 2.90 2.48 2.02 1.54 1.65 1.76 1.90 1.99 2.06 2.20 2.41 2.68 2.67
3.47 3.76 3.87 4.05 4.01 3.86 3.90 3.93 3.89 3.92 3.50 3.42 3.42 3.42 3.21 3.20 3.22 3.23 3.19 3.09 3.10 2.92 3.00 3.08 3.10 3.11 3.05 3.00 3.32 3.68 3.24 2.74 2.39 1.80 1.66 1.68 1.93 2.22 2.25 2.26 2.30 2.55 2.70
3.03 3.33 3.57 3.63 3.58 3.52 3.63 3.70 3.60 3.42 3.29 3.44 3.73 3.67 3.38 3.17 3.03 2.85 2.79 2.95 2.97 2.74 2.78 2.46 2.60 2.81 2.83 2.70 2.97 3.06 3.10 3.08 2.99 2.32 1.87 1.70 1.84 2.05 2.24 2.18 2.22 2.47 2.75
2.63 2.90 3.14 3.41 3.51 3.46 3.54 3.51 3.54 3.39 3.38 3.44 3.44 3.47 3.27 3.08 2.76 2.44 2.46 2.65 2.60 2.51 2.43 2.34 2.50 2.40 2.36 2.44 2.67 2.86 2.94 3.02 2.90 2.73 2.31 2.25 2.19 2.05 2.02 2.09 2.31 2.46 2.70
2.30 2.41 2.54 2.76 3.03 3.20 3.26 3.24 3.28 3.24 3.22 3.18 3.12 2.99 2.78 2.63 2.43 2.17 2.07 2.24 2.34 2.36 2.34 2.33 2.41 2.32 2.34 2.49 2.50 2.55 2.78 2.80 2.76 2.93 2.52 2.37 2.36 2.11 2.08 2.19 2.22 2.43 2.55